Wind_Speed
4 4 2 3 3 3 3 4 5 6 6 8 8 8 8 8 8 7 8 8 8 7 7 7 8 8 8 8 8 8 8 8 8 7 8 7 7 7 8 8 8 8 8
4 4 4 4 4 3 3 4 4 5 6 6 7 7 7 7 7 8 8 8 8 8 7 7 8 8 8 8 8 8 8 8 8 8 8 7 7 8 8 8 9 9 9
6 5 5 4 3 3 4 3 3 3 3 3 4 5 5 6 6 7 7 7 8 8 8 8 8 8 8 8 8 8 8 8 8 8 8 8 8 7 8 8 8 9 10
8 8 6 5 4 4 4 3 2 2 2 2 3 4 5 5 6 7 6 7 8 8 8 8 8 8 8 8 8 8 8 8 8 7 8 8 8 8 9 8 8 9 10
8 7 7 6 5 5 5 4 4 3 2 2 1 2 3 5 6 6 7 7 7 7 7 8 8 8 8 8 7 7 8 8 8 8 8 8 8 8 9 10 10 10 11
7 8 7 7 6 6 5 5 4 3 2 2 1 1 2 4 5 6 7 7 7 7 7 7 7 7 8 8 8 8 9 9 9 9 9 9 9 9 9 9 10 11 11
7 8 7 7 7 7 6 5 5 4 3 3 3 3 4 4 5 6 6 6 7 8 8 8 8 7 8 8 9 9 10 10 10 10 10 10 11 11 10 11 11 11 12
9 8 8 8 8 8 7 6 5 5 4 4 4 4 5 5 4 5 6 6 7 8 8 8 8 8 8 8 9 9 9 10 11 11 11 12 12 12 12 12 13 13 14
10 10 9 9 8 8 7 6 5 5 5 5 5 5 4 4 5 5 5 6 6 6 7 7 8 8 8 9 8 9 9 9 9 10 10 11 12 13 12 13 14 15 15
10 10 10 9 9 8 8 8 7 7 7 6 6 6 5 5 6 6 6 6 7 7 7 8 9 9 9 9 9 10 10 10 10 10 11 11 11 12 13 14 15 15 16
10 10 10 10 10 10 9 9 9 9 8 8 8 7 7 7 8 9 8 8 9 9 9 10 9 10 9 10 10 11 11 12 12 11 11 11 12 13 13 14 14 15 16
11 11 10 10 10 10 10 10 10 10 10 10 9 9 8 8 9 10 10 10 11 11 11 12 11 11 11 11 12 12 12 13 13 12 12 12 13 15 14 14 15 15 16
12 12 11 11 11 11 11 11 11 11 11 10 10 10 9 9 10 10 11 12 12 12 12 11 12 12 12 12 12 12 12 13 14 14 14 14 15 16 16 16 16 16 16
13 13 13 12 12 12 12 12 12 11 11 11 11 11 11 11 11 11 12 12 12 13 13 13 13 13 13 13 14 14 15 15 15 16 15 15 16 16 17 16 17 17 17
14 13 13 13 13 13 13 13 13 13 13 13 12 12 12 13 13 13 14 14 14 14 14 15 14 14 14 14 15 15 15 16 16 16 16 16 16 16 17 17 18 18 18
15 15 14 14 14 15 15 14 14 14 14 13 13 14 14 14 14 15 15 15 15 16 16 16 16 16 16 15 15 16 16 16 16 16 17 17 17 17 18 18 19 19 19
16 16 16 16 17 16 16 15 15 15 15 14 15 15 16 16 16 16 17 17 17 17 18 17 17 17 17 17 17 17 17 18 18 18 18 19 19 19 19 19 19 19 20
17 18 18 18 18 17 17 17 16 16 16 16 17 17 17 17 18 17 18 18 18 18 18 19 19 19 19 18 19 19 19 19 20 20 20 20 20 20 21 21 21 21 21
18 18 18 19 19 19 18 18 18 18 18 18 18 18 18 19 19 19 19 19 20 20 20 21 20 21 21 20 20 20 20 21 21 22 22 22 22 22 22 22 22 21 21
20 20 19 19 19 19 19 19 20 19 19 19 19 20 20 20 20 20 20 20 21 21 21 21 21 22 23 22 22 22 22 22 23 23 23 23 23 23 22 22 22 22 22
21 21 20 20 20 20 20 20 20 20 20 21 21 22 22 21 21 21 21 22 22 22 22 22 22 23 24 23 23 24 24 24 24 24 24 24 24 23 23 23 23 23 23
23 22 22 21 20 21 21 21 20 20 21 22 22 23 22 21 22 22 23 24 24 24 23 23 24 24 25 25 25 25 25 25 25 25 25 25 25 25 25 25 25 24 24
23 23 22 22 22 21 21 21 21 21 22 22 23 23 23 23 23 24 25 25 26 25 25 24 24 25 26 26 26 26 26 26 26 26 27 26 26 26 26 26 26 26 25
23 23 23 22 22 22 22 22 22 22 22 23 23 23 23 24 24 25 26 26 27 27 26 26 25 25 26 26 26 27 27 27 27 27 27 27 27 27 27 27 27 27 27
25 25 24 23 23 23 22 22 22 23 23 24 24 24 24 25 25 26 27 27 27 27 27 27 27 27 27 27 27 27 27 27 27 28 28 28 27 28 27 27 27 27 27
26 26 25 25 24 24 23 23 24 24 25 25 25 25 25 26 27 27 28 28 28 27 27 28 28 28 28 27 27 27 27 27 27 28 29 29 28 28 27 27 27 27 27
Wind_Direction
35 14 345 330 325 308 282 279 276 272 262 247 242 241 241 241 241 243 240 238 237 233 231 235 236 232 227 227 227 230 233 236 237 239 239 243 249 250 248 246 245 241 242
10 352 342 323 329 328 317 309 306 282 266 251 244 242 246 245 242 239 237 234 231 229 233 236 233 231 228 232 232 229 232 236 239 241 241 243 249 247 247 246 244 244 245
9 355 353 342 334 340 330 322 322 290 275 258 249 246 243 241 235 235 231 233 231 229 233 233 232 228 232 235 235 229 233 237 241 244 248 249 249 250 247 246 244 245 243
15 12 10 4 3 1 346 342 340 320 322 281 255 239 234 230 236 233 230 233 234 231 233 234 231 227 230 235 234 235 235 237 240 246 253 254 254 256 252 248 251 250 246
14 10 11 5 354 345 349 1 12 2 355 342 317 242 241 241 241 242 241 233 233 232 234 231 224 229 230 231 237 239 240 241 245 249 257 258 260 258 257 256 251 250 249
4 3 2 354 348 345 353 354 351 347 345 346 329 261 262 257 251 247 238 232 230 232 233 234 231 236 235 243 245 245 248 248 250 255 258 260 261 263 261 256 253 250 251
354 351 352 349 345 341 342 348 347 338 317 291 279 271 264 264 264 248 241 238 233 235 237 236 242 244 246 252 247 245 249 252 254 256 259 261 261 259 259 258 256 257 257
351 343 342 342 341 338 330 326 333 332 321 323 313 290 273 262 244 246 252 252 243 241 239 243 243 246 248 251 252 248 251 257 258 257 259 263 263 258 260 261 259 259 259
343 342 341 336 332 332 333 331 326 323 323 316 313 303 283 262 259 263 265 266 261 254 250 248 254 258 256 256 256 257 255 260 260 266 266 264 264 263 263 265 265 261 260
334 336 337 332 328 324 321 324 321 316 315 310 302 298 284 283 283 280 274 266 263 261 264 263 263 266 267 260 260 262 262 261 266 266 267 268 267 269 266 265 263 262 261
327 328 329 329 328 322 315 315 318 311 307 303 298 293 285 284 281 277 272 266 264 264 268 267 265 265 263 260 259 263 266 268 269 271 274 270 268 270 270 266 268 269 265
320 322 326 326 324 322 319 315 313 312 309 305 300 295 288 284 279 274 271 268 264 265 267 265 264 265 263 264 261 264 267 266 268 271 272 271 271 269 268 270 272 271 271
315 318 321 319 317 316 314 313 312 309 306 304 299 297 294 290 286 278 275 274 267 265 266 265 266 265 266 267 269 269 268 267 270 271 272 272 272 272 272 272 271 270 270
313 314 315 313 311 312 310 308 308 304 301 296 292 289 288 286 284 282 282 281 276 273 272 272 271 267 268 268 271 271 271 271 273 275 274 272 270 271 273 272 271 271 269
309 309 310 310 309 308 307 305 304 300 296 291 286 283 282 280 278 276 277 277 276 275 274 274 273 271 272 274 275 274 274 274 273 272 274 275 274 274 274 272 272 272 271
308 306 305 306 305 305 307 304 300 298 294 289 285 282 278 278 278 276 276 273 273 274 273 271 271 271 273 275 276 276 275 276 277 276 279 279 278 278 280 276 273 274 272
310 306 304 304 304 303 304 302 299 296 291 288 286 282 279 278 278 276 275 274 274 275 273 271 270 271 272 273 274 275 275 275 276 277 278 278 278 278 281 280 276 276 276
307 304 301 300 300 300 300 299 297 294 291 289 288 286 284 281 279 276 274 274 273 273 271 269 268 270 271 272 274 274 275 275 276 277 277 276 277 277 280 280 278 276 274
304 304 300 297 296 296 296 294 293 292 291 291 291 290 287 283 279 276 274 273 273 274 272 269 267 267 269 272 274 274 275 275 276 276 277 276 276 277 279 279 278 276 273
302 301 298 297 297 296 293 291 290 290 290 289 290 290 289 284 280 278 278 276 275 275 273 270 268 268 269 270 270 271 273 274 274 274 274 275 276 277 278 279 276 276 273
304 303 300 297 296 295 295 294 292 291 290 289 289 288 287 283 280 279 278 277 276 276 273 271 270 270 269 269 269 270 271 272 273 274 275 274 275 276 278 278 278 277 274
303 301 299 298 296 295 294 294 293 290 290 290 291 290 287 284 281 279 278 277 277 276 274 272 272 271 270 270 270 271 272 273 273 274 275 276 275 276 277 278 277 274 272
302 301 298 298 297 295 294 292 291 291 291 290 290 291 288 283 280 280 279 279 279 278 274 274 274 273 271 270 270 271 271 272 273 273 274 274 275 275 275 276 276 274 271
302 301 299 297 296 295 295 293 292 292 292 292 291 290 288 285 282 281 280 279 279 278 276 276 275 273 272 271 271 272 271 271 271 272 273 273 273 275 276 275 275 274 271
302 299 298 297 295 294 294 295 295 294 293 292 291 290 288 287 285 283 282 281 279 279 278 277 276 275 273 272 273 272 273 272 272 272 273 273 273 275 275 275 274 273 272
300 298 296 294 293 291 291 293 293 293 293 292 291 289 288 288 286 285 284 282 280 278 277 275 274 274 273 273 272 272 274 274 273 272 272 273 274 274 273 273 273 273 272
Height
5872 5870 5869 5868 5867 5865 5864 5863 5861 5860 5860 5860 5860 5861 5862 5863 5864 5864 5865 5866 5866 5867 5867 5868 5868 5869 5869 5870 5870 5871 5871 5872 5872 5872 5873 5873 5874 5874 5874 5874 5874 5875 5875
5872 5871 5869 5868 5866 5864 5863 5861 5859 5858 5858 5857 5858 5859 5860 5861 5862 5862 5863 5864 5864 5865 5865 5865 5866 5866 5867 5867 5868 5869 5869 5870 5870 5871 5871 5871 5872 5872 5872 5872 5872 5873 5873
5873 5871 5869 5867 5866 5864 5862 5861 5859 5857 5855 5855 5856 5857 5858 5859 5860 5861 5862 5862 5862 5863 5864 5864 5864 5865 5865 5865 5866 5866 5867 5868 5868 5869 5869 5869 5869 5869 5869 5870 5870 5870 5871
5873 5871 5869 5867 5866 5864 5863 5861 5859 5857 5856 5855 5855 5856 5857 5858 5859 5859 5860 5861 5861 5861 5862 5862 5862 5863 5863 5863 5864 5864 5865 5865 5866 5866 5867 5867 5867 5867 5867 5867 5868 5868 5869
5873 5871 5870 5868 5866 5865 5863 5861 5859 5858 5857 5856 5856 5856 5857 5857 5858 5858 5858 5859 5859 5860 5860 5860 5860 5861 5861 5861 5862 5862 5863 5863 5864 5864 5864 5864 5864 5865 5865 5865 5865 5866 5866
5873 5871 5870 5868 5866 5865 5863 5862 5860 5859 5857 5857 5856 5856 5856 5856 5856 5857 5857 5857 5857 5858 5858 5858 5858 5858 5859 5859 5859 5860 5860 5861 5861 5862 5862 5862 5862 5862 5862 5863 5863 5863 5864
5872 5871 5869 5868 5866 5865 5863 5862 5860 5859 5858 5857 5856 5855 5855 5855 5855 5855 5855 5855 5855 5856 5856 5856 5856 5857 5857 5857 5857 5857 5858 5858 5858 5858 5859 5859 5859 5859 5859 5860 5860 5860 5860
5872 5870 5868 5867 5865 5864 5862 5861 5860 5859 5858 5856 5856 5855 5854 5855 5854 5853 5854 5854 5854 5854 5854 5855 5854 5855 5854 5855 5855 5855 5855 5855 5855 5855 5855 5855 5856 5856 5856 5856 5856 5856 5857
5871 5870 5867 5866 5864 5862 5861 5860 5859 5858 5857 5856 5855 5854 5853 5853 5853 5853 5853 5853 5853 5853 5853 5853 5852 5852 5852 5853 5853 5853 5853 5852 5852 5852 5852 5852 5852 5852 5852 5852 5852 5852 5852
5870 5868 5867 5865 5863 5861 5860 5858 5857 5856 5855 5854 5853 5853 5853 5852 5852 5851 5852 5852 5852 5852 5851 5851 5850 5850 5850 5850 5850 5850 5850 5850 5850 5849 5849 5849 5848 5848 5848 5848 5848 5848 5848
5869 5867 5865 5863 5861 5859 5858 5857 5855 5854 5854 5853 5852 5851 5851 5850 5850 5850 5850 5850 5850 5849 5849 5849 5848 5848 5847 5847 5847 5847 5847 5847 5847 5846 5846 5845 5845 5844 5844 5844 5844 5844 5844
5867 5865 5863 5861 5859 5857 5856 5854 5853 5852 5851 5850 5849 5848 5848 5848 5847 5847 5847 5847 5847 5847 5846 5846 5845 5845 5845 5844 5844 5844 5844 5844 5843 5843 5842 5842 5841 5840 5840 5840 5840 5840 5840
5864 5862 5860 5859 5857 5855 5854 5852 5851 5849 5848 5847 5846 5846 5845 5845 5844 5844 5844 5844 5843 5843 5843 5843 5842 5842 5842 5841 5841 5840 5840 5840 5839 5839 5839 5838 5837 5837 5837 5836 5836 5835 5835
5861 5859 5857 5856 5854 5852 5850 5849 5848 5846 5845 5844 5843 5843 5842 5842 5841 5841 5840 5840 5840 5839 5839 5839 5838 5838 5838 5838 5837 5837 5836 5836 5835 5835 5834 5833 5833 5833 5832 5832 5831 5831 5830
5858 5856 5854 5852 5851 5849 5847 5846 5844 5843 5842 5841 5840 5839 5839 5838 5838 5837 5837 5837 5836 5836 5835 5835 5834 5834 5834 5834 5833 5833 5832 5832 5831 5830 5830 5829 5828 5828 5827 5827 5826 5826 5825
5855 5852 5851 5849 5847 5845 5844 5842 5841 5840 5838 5837 5837 5836 5835 5834 5834 5833 5832 5832 5832 5831 5830 5830 5830 5830 5829 5829 5829 5828 5828 5827 5826 5826 5826 5824 5824 5823 5822 5821 5821 5820 5820
5851 5849 5847 5845 5843 5842 5840 5838 5837 5836 5834 5833 5832 5831 5830 5829 5829 5828 5827 5827 5826 5826 5825 5825 5825 5825 5824 5824 5824 5824 5823 5822 5822 5821 5820 5819 5819 5818 5817 5816 5815 5814 5814
5847 5845 5843 5841 5839 5837 5836 5834 5832 5831 5830 5828 5827 5826 5825 5824 5823 5822 5822 5821 5821 5820 5819 5819 5819 5819 5819 5818 5818 5818 5817 5817 5816 5815 5814 5813 5813 5812 5811 5810 5809 5808 5808
5843 5840 5838 5836 5834 5832 5830 5828 5827 5826 5824 5823 5822 5821 5819 5818 5817 5816 5816 5815 5814 5814 5813 5813 5813 5813 5812 5812 5812 5811 5811 5811 5810 5809 5808 5807 5806 5806 5805 5804 5803 5802 5801
5838 5836 5833 5831 5829 5827 5825 5823 5821 5820 5818 5817 5816 5815 5813 5812 5811 5810 5809 5809 5808 5807 5807 5806 5806 5806 5806 5806 5805 5805 5805 5804 5803 5802 5801 5801 5800 5799 5798 5797 5796 5795 5795
5832 5830 5827 5825 5823 5821 5819 5817 5815 5813 5812 5811 5810 5808 5807 5806 5805 5804 5803 5802 5801 5800 5800 5799 5799 5799 5799 5798 5798 5798 5797 5797 5796 5795 5794 5794 5793 5792 5791 5790 5789 5789 5788
5827 5824 5822 5819 5817 5814 5812 5811 5809 5807 5806 5804 5803 5801 5800 5799 5798 5797 5796 5795 5794 5793 5792 5792 5792 5791 5791 5790 5790 5790 5790 5789 5788 5788 5787 5786 5785 5785 5784 5783 5782 5781 5780
5821 5818 5815 5813 5810 5808 5806 5804 5802 5801 5799 5797 5796 5794 5793 5792 5791 5790 5788 5787 5786 5785 5785 5784 5784 5783 5783 5782 5782 5782 5781 5781 5781 5780 5779 5778 5777 5777 5776 5775 5774 5774 5773
5815 5812 5809 5807 5804 5801 5799 5797 5795 5794 5792 5790 5789 5787 5786 5784 5783 5782 5781 5779 5778 5777 5776 5776 5776 5775 5774 5774 5773 5773 5773 5772 5772 5771 5770 5770 5769 5768 5768 5767 5766 5765 5765
5809 5806 5803 5800 5798 5795 5793 5791 5789 5787 5785 5783 5781 5780 5778 5777 5775 5774 5772 5771 5770 5769 5767 5767 5766 5766 5766 5765 5764 5764 5764 5763 5763 5762 5761 5761 5760 5759 5759 5758 5757 5756 5756
5802 5798 5795 5793 5790 5788 5786 5784 5782 5780 5778 5776 5774 5772 5770 5769 5767 5765 5763 5762 5761 5760 5759 5758 5757 5757 5756 5756 5755 5755 5754 5754 5753 5753 5752 5751 5751 5750 5750 5749 5748 5748 5747